Total_Precipitation_Accumulation
0.00 0.01 0.02 0.02 0.02 0.03 0.05 0.07 0.11 0.15 0.14 0.17 0.32 0.50 0.52 0.66 0.90 1.13 1.42 1.71 1.97 2.27 2.70 3.13 3.20 3.38 3.65 4.12 4.42 4.50 4.63 4.57 4.33 3.95 3.54 3.35 3.20 3.10 2.96 2.72 2.45 2.33 2.29 2.35
0.01 0.03 0.01 0.01 0.02 0.03 0.06 0.09 0.13 0.15 0.13 0.15 0.29 0.48 0.58 0.89 1.15 1.17 1.24 1.40 1.62 2.06 2.48 2.78 2.86 2.87 3.21 3.76 4.17 4.29 4.04 3.91 3.83 3.59 3.41 3.38 3.50 3.20 2.89 2.66 2.37 2.19 2.18 2.23
0.03 0.03 0.02 0.02 0.02 0.03 0.05 0.06 0.11 0.16 0.15 0.19 0.30 0.59 0.77 1.01 1.12 1.16 1.21 1.30 1.45 1.79 2.15 2.42 2.44 2.51 2.73 2.82 3.06 3.22 3.32 3.18 3.05 2.98 2.97 3.05 3.18 2.90 2.59 2.40 2.25 2.04 1.92 1.89
0.03 0.03 0.03 0.04 0.04 0.04 0.06 0.07 0.06 0.08 0.15 0.26 0.38 0.89 1.10 1.02 1.08 1.21 1.22 1.22 1.44 1.77 1.75 1.84 1.97 2.12 2.33 2.39 2.53 2.58 2.61 2.68 2.63 2.62 2.56 2.45 2.34 2.18 2.04 2.03 1.96 1.91 1.81 1.72
0.05 0.04 0.03 0.05 0.05 0.04 0.05 0.05 0.06 0.09 0.18 0.28 0.39 0.69 1.05 1.29 1.36 1.18 1.11 1.06 1.26 1.39 1.29 1.33 1.47 1.53 1.68 1.78 1.97 2.11 2.19 2.24 2.28 2.27 2.16 2.11 1.97 1.93 1.89 1.82 1.75 1.66 1.61 1.61
0.05 0.05 0.04 0.04 0.04 0.04 0.04 0.06 0.12 0.23 0.41 0.64 0.53 0.65 1.03 1.31 1.46 1.16 1.06 1.03 1.13 1.09 1.06 1.20 1.27 1.27 1.34 1.53 1.69 1.83 1.92 1.92 1.98 1.99 1.95 1.87 1.79 1.75 1.66 1.57 1.53 1.48 1.46 1.39
0.12 0.12 0.10 0.06 0.05 0.06 0.06 0.13 0.45 0.80 1.09 1.11 0.71 0.74 1.08 1.05 1.02 0.97 0.96 1.04 1.06 0.97 0.89 0.89 0.94 1.05 1.17 1.30 1.37 1.46 1.55 1.59 1.55 1.57 1.58 1.52 1.51 1.47 1.35 1.27 1.22 1.15 1.09 1.04
0.17 0.24 0.15 0.09 0.09 0.09 0.10 0.15 0.50 0.76 0.81 0.91 0.79 1.05 1.37 1.07 0.95 0.88 0.92 1.01 0.99 0.84 0.74 0.71 0.73 0.79 0.88 0.95 1.03 1.10 1.20 1.26 1.30 1.31 1.28 1.19 1.14 1.12 1.03 1.06 1.01 0.96 0.85 0.78
0.10 0.11 0.08 0.08 0.09 0.11 0.15 0.17 0.23 0.43 0.47 0.67 0.87 1.14 1.28 0.96 0.90 0.96 1.07 1.08 1.01 0.78 0.62 0.57 0.60 0.64 0.65 0.65 0.70 0.78 0.94 1.01 1.06 1.10 1.07 0.98 0.94 0.93 0.88 0.91 0.96 0.93 0.91 0.80
0.06 0.05 0.06 0.07 0.09 0.12 0.15 0.15 0.19 0.36 0.51 0.70 0.79 1.13 1.37 1.23 1.17 1.12 1.18 1.02 0.74 0.57 0.47 0.43 0.44 0.45 0.46 0.49 0.57 0.66 0.74 0.78 0.83 0.91 0.92 0.77 0.81 0.87 0.85 0.83 0.83 0.84 0.84 0.81
0.05 0.04 0.06 0.09 0.12 0.14 0.19 0.21 0.28 0.39 0.41 0.61 0.88 1.04 0.96 0.95 1.00 1.09 1.06 0.85 0.59 0.46 0.36 0.35 0.38 0.40 0.42 0.44 0.52 0.62 0.72 0.80 0.81 0.86 0.90 0.78 0.75 0.77 0.77 0.77 0.74 0.75 0.74 0.76
0.07 0.06 0.10 0.16 0.18 0.17 0.17 0.19 0.28 0.42 0.40 0.43 0.62 0.74 0.51 0.53 0.60 0.64 0.65 0.56 0.47 0.44 0.34 0.35 0.39 0.41 0.41 0.46 0.52 0.60 0.69 0.76 0.80 0.87 0.95 0.93 0.86 0.82 0.78 0.74 0.69 0.66 0.63 0.65
0.10 0.11 0.16 0.37 0.48 0.30 0.18 0.17 0.19 0.24 0.27 0.28 0.47 0.58 0.38 0.41 0.48 0.58 0.68 0.71 0.66 0.57 0.39 0.37 0.39 0.41 0.42 0.47 0.55 0.65 0.72 0.74 0.79 0.90 1.02 1.04 0.90 0.83 0.79 0.73 0.67 0.62 0.56 0.55
0.11 0.14 0.18 0.40 0.51 0.40 0.30 0.23 0.19 0.22 0.30 0.28 0.29 0.41 0.40 0.43 0.49 0.59 0.68 0.72 0.61 0.51 0.42 0.38 0.41 0.45 0.48 0.50 0.49 0.51 0.55 0.58 0.66 0.71 0.82 0.94 0.91 0.78 0.63 0.57 0.60 0.61 0.58 0.59
0.09 0.12 0.12 0.15 0.22 0.29 0.31 0.26 0.20 0.17 0.21 0.33 0.31 0.33 0.40 0.46 0.43 0.50 0.56 0.49 0.46 0.40 0.42 0.43 0.45 0.48 0.51 0.49 0.45 0.42 0.39 0.40 0.47 0.55 0.62 0.72 0.66 0.60 0.56 0.51 0.46 0.45 0.49 0.51
0.16 0.16 0.15 0.14 0.17 0.21 0.24 0.25 0.17 0.13 0.12 0.15 0.25 0.39 0.40 0.40 0.43 0.42 0.42 0.41 0.41 0.43 0.48 0.51 0.54 0.56 0.50 0.46 0.40 0.37 0.35 0.39 0.46 0.55 0.56 0.61 0.61 0.52 0.44 0.40 0.38 0.36 0.39 0.46
0.32 0.28 0.25 0.20 0.18 0.24 0.29 0.24 0.18 0.13 0.11 0.12 0.28 0.49 0.40 0.38 0.41 0.41 0.44 0.44 0.37 0.39 0.41 0.43 0.42 0.45 0.37 0.36 0.37 0.35 0.35 0.36 0.40 0.47 0.55 0.62 0.65 0.62 0.48 0.36 0.37 0.38 0.44 0.50
0.40 0.43 0.36 0.29 0.34 0.49 0.34 0.21 0.18 0.20 0.18 0.18 0.23 0.31 0.32 0.36 0.35 0.30 0.28 0.30 0.30 0.34 0.36 0.40 0.42 0.39 0.38 0.36 0.37 0.35 0.33 0.32 0.38 0.45 0.51 0.55 0.60 0.59 0.56 0.51 0.48 0.51 0.60 0.65
0.31 0.44 0.43 0.39 0.46 0.40 0.36 0.30 0.29 0.33 0.33 0.30 0.37 0.32 0.29 0.30 0.27 0.28 0.22 0.23 0.23 0.28 0.31 0.36 0.41 0.45 0.49 0.45 0.47 0.48 0.46 0.46 0.49 0.54 0.60 0.60 0.63 0.65 0.64 0.62 0.65 0.70 0.75 0.73
0.38 0.47 0.55 0.51 0.60 0.59 0.54 0.45 0.40 0.42 0.62 0.47 0.47 0.46 0.41 0.41 0.48 0.43 0.29 0.22 0.24 0.25 0.29 0.33 0.30 0.32 0.42 0.47 0.56 0.63 0.66 0.65 0.70 0.76 0.82 0.81 0.86 0.90 0.86 0.91 0.96 0.96 0.96 0.90
0.77 0.76 0.67 0.66 0.71 0.67 0.56 0.51 0.46 0.75 0.87 0.53 0.47 0.51 0.52 0.52 0.56 0.44 0.33 0.27 0.29 0.25 0.26 0.30 0.35 0.33 0.39 0.48 0.59 0.72 0.81 0.80 0.85 0.88 0.97 1.06 1.14 1.26 1.34 1.41 1.33 1.28 1.24 1.21
0.85 0.95 0.94 0.93 0.98 0.87 0.57 0.55 0.74 0.88 0.69 0.69 0.59 0.54 0.52 0.48 0.50 0.47 0.41 0.39 0.29 0.31 0.33 0.36 0.46 0.42 0.44 0.50 0.60 0.71 0.79 0.90 1.03 1.10 1.22 1.30 1.41 1.45 1.52 1.82 1.85 1.87 1.79 1.57
0.86 0.94 0.96 0.95 0.97 0.74 0.62 0.75 0.79 0.76 0.78 0.78 0.68 0.54 0.51 0.47 0.45 0.46 0.42 0.35 0.27 0.27 0.33 0.37 0.50 0.55 0.55 0.62 0.80 0.96 0.95 1.03 1.18 1.29 1.41 1.50 1.55 1.64 1.74 1.88 1.93 1.97 1.95 1.77
0.87 0.75 0.86 0.95 1.00 0.84 0.68 0.70 0.79 0.76 0.70 0.73 0.68 0.64 0.65 0.57 0.48 0.54 0.50 0.38 0.32 0.31 0.35 0.39 0.50 0.62 0.77 0.86 0.99 1.14 1.11 1.15 1.28 1.36 1.41 1.47 1.56 1.67 1.78 1.91 1.90 1.86 1.80 1.75
0.78 0.83 0.99 1.12 1.07 0.96 0.84 0.80 0.93 0.90 0.78 0.79 0.75 0.72 0.72 0.61 0.51 0.47 0.45 0.45 0.44 0.45 0.49 0.50 0.58 0.71 0.91 1.06 1.16 1.21 1.22 1.31 1.40 1.43 1.49 1.58 1.62 1.67 1.77 1.81 1.86 1.77 1.67 1.60
0.73 0.86 1.02 1.15 1.08 1.15 1.09 0.90 0.95 1.01 0.85 0.83 0.82 0.77 0.64 0.57 0.55 0.52 0.50 0.50 0.51 0.54 0.55 0.59 0.67 0.78 0.92 1.08 1.24 1.34 1.42 1.51 1.58 1.60 1.54 1.60 1.69 1.75 1.80 1.78 1.66 1.51 1.41 1.29